Find Local Weather

World > North America > United States > New Mexico

Albuquerque, New Mexico Regional Weather

Lat: 35.12N, Lon: 106.62W
Wx Zone: NMZ519
Warning FLW WEATHER ALERT - (More Info. Click Here) Warning
Feedback
Expires:201901241100;;845576
ASUS45 KABQ 241010
RWRNM 
NEW MEXICO REGIONAL WEATHER ROUNDUP
NATIONAL WEATHER SERVICE ALBUQUERQUE NM
300 AM MST THU JAN 24 2019

NOTE: "FAIR" MEANS FEW OR NO CLOUDS BELOW 12,000 FEET AGL WITH NO
       SIGNIFICANT WEATHER OR OBSTRUCTIONS TO VISION.

      THIS PRODUCT IS RELEASED AS TWO VERSIONS.  ONE VERSION NEAR
      THE TOP OF THE HOUR CONTAINING PRELIMINARY DATA FROM ALBUQUERQUE
      AND OTHER STATIONS.  A FINAL VERSION WITH ADDITIONAL DATA IS 
      ISSUED ABOUT 10 MINUTES AFTER THE HOUR.
 

NMZ519>523-241100-
CENTRAL VALLEYS/CENTRAL HIGHLANDS
  
CITY           SKY/WX    TMP DP  RH WIND       PRES   REMARKS
ALBUQUERQUE    FAIR      33  13  43 N13       30.10S WCI  24          
DOUBLE EAGLE   FAIR      28  14  54 N10       30.09S WCI  19          
MORIARTY ARPT  FAIR      30  18  59 N10       30.04S WCI  21          
CLINES CORNERS FAIR      23  13  65 NW13      30.02R WCI  11          
BELEN          FAIR      25  14  63 N5        30.11R WCI  19          
SOCORRO        FAIR      32  12  43 E6        30.09S WCI  26          

$$

SKY/WX - Weather  TMP - Temperature  DP - Dew Point  RH - Relative Humidity
WIND - Wind Direction/Speed PRES - Barometric Pressure